| time (UTC) | temp C | wind direction | speed KPH | gust KPH | rain 1hr cm | rain 24hr cm | rain mn cm | humidity % | barometer mb |
| 20260903105547 | 16 | 159 | 1.6 | 9.7 | 0.03 | 0.05 | 0.05 | 96 | 1007.4 |
| 20260903105047 | 16 | 197 | 3.2 | 9.7 | 0.03 | 0.05 | 0.05 | 96 | 1007.5 |
| 20260903104546 | 16 | 182 | 1.6 | 8.0 | 0.03 | 0.05 | 0.05 | 96 | 1007.5 |
| 20260903104045 | 16 | 161 | 3.2 | 9.7 | 0.03 | 0.05 | 0.05 | 96 | 1007.7 |
| 20260903103544 | 16 | 173 | 4.8 | 9.7 | 0.03 | 0.05 | 0.05 | 96 | 1007.7 |
| 20260903103045 | 15 | 183 | 4.8 | 11.3 | 0.03 | 0.05 | 0.05 | 96 | 1007.9 |
| 20260903102545 | 15 | 192 | 4.8 | 11.3 | 0.03 | 0.05 | 0.05 | 96 | 1007.9 |
| 20260903102042 | 15 | 158 | 4.8 | 11.3 | 0.03 | 0.05 | 0.05 | 96 | 1008.0 |
| 20260903101542 | 15 | 180 | 3.2 | 9.7 | 0.03 | 0.05 | 0.05 | 96 | 1008.0 |
| 20260903101041 | 15 | 209 | 4.8 | 11.3 | 0.03 | 0.05 | 0.05 | 96 | 1008.2 |
| 20260903100541 | 15 | 209 | 6.4 | 11.3 | 0.03 | 0.05 | 0.05 | 96 | 1008.2 |
| 20260903100040 | 15 | 153 | 3.2 | 16.1 | 0.03 | 0.05 | 0.05 | 96 | 1008.3 |
| 20260903095539 | 15 | 200 | 6.4 | 16.1 | 0.00 | 0.03 | 0.03 | 97 | 1008.4 |
| 20260903095040 | 15 | 218 | 3.2 | 12.9 | 0.00 | 0.03 | 0.03 | 97 | 1008.5 |
| 20260903094538 | 15 | 223 | 1.6 | 12.9 | 0.00 | 0.03 | 0.03 | 97 | 1008.4 |
| 20260903094038 | 15 | 196 | 4.8 | 11.3 | 0.00 | 0.03 | 0.03 | 97 | 1008.6 |
| 20260903093538 | 15 | 199 | 4.8 | 9.7 | 0.00 | 0.03 | 0.03 | 97 | 1008.7 |
| 20260903093035 | 15 | 257 | 3.2 | 9.7 | 0.00 | 0.03 | 0.03 | 97 | 1008.8 |
| 20260903092534 | 15 | 144 | 3.2 | 11.3 | 0.00 | 0.03 | 0.03 | 97 | 1008.9 |
| 20260903092032 | 15 | 186 | 3.2 | 11.3 | 0.00 | 0.03 | 0.03 | 97 | 1008.9 |
| 20260903091546 | 15 | 187 | 3.2 | 11.3 | 0.00 | 0.03 | 0.03 | 97 | 1009.1 |
| 20260903091031 | 15 | 192 | 4.8 | 14.5 | 0.00 | 0.03 | 0.03 | 97 | 1009.2 |
| 20260903090531 | 15 | 161 | 3.2 | 14.5 | 0.00 | 0.03 | 0.03 | 97 | 1009.2 |
| 20260903090030 | 15 | 204 | 1.6 | 11.3 | 0.00 | 0.03 | 0.03 | 97 | 1009.3 |
| 20260903085529 | 15 | 192 | 1.6 | 8.0 | 0.00 | 0.03 | 0.03 | 97 | 1009.3 |
| 20260903085028 | 15 | 175 | 1.6 | 8.0 | 0.00 | 0.03 | 0.03 | 97 | 1009.3 |
| 20260903084528 | 15 | 259 | 1.6 | 6.4 | 0.00 | 0.03 | 0.03 | 97 | 1009.5 |
| 20260903084027 | 15 | 185 | 0.0 | 8.0 | 0.00 | 0.03 | 0.03 | 97 | 1009.6 |
| 20260903083526 | 15 | 158 | 1.6 | 8.0 | 0.00 | 0.03 | 0.03 | 97 | 1009.6 |
| 20260903083027 | 15 | 171 | 3.2 | 9.7 | 0.00 | 0.03 | 0.03 | 97 | 1009.6 |
| 20260903082525 | 15 | 175 | 1.6 | 8.0 | 0.00 | 0.03 | 0.03 | 97 | 1009.7 |
| 20260903082023 | 15 | 205 | 1.6 | 8.0 | 0.00 | 0.03 | 0.03 | 97 | 1009.7 |
| 20260903081523 | 15 | 196 | 0.0 | 8.0 | 0.00 | 0.03 | 0.03 | 97 | 1009.8 |
| 20260903081022 | 15 | 203 | 1.6 | 6.4 | 0.00 | 0.03 | 0.03 | 97 | 1009.8 |
| 20260903080522 | 15 | 172 | 1.6 | 4.8 | 0.00 | 0.03 | 0.03 | 98 | 1009.8 |
| 20260903080021 | 15 | 186 | 0.0 | 4.8 | 0.00 | 0.03 | 0.03 | 98 | 1009.8 |
| 20260903075520 | 15 | 154 | 0.0 | 4.8 | 0.00 | 0.03 | 0.03 | 98 | 1009.9 |
| 20260903075022 | 15 | 245 | 0.0 | 4.8 | 0.00 | 0.03 | 0.03 | 98 | 1009.9 |
| 20260903074518 | 15 | 246 | 0.0 | 4.8 | 0.00 | 0.03 | 0.03 | 98 | 1010.0 |
| 20260903074017 | 15 | 232 | 0.0 | 4.8 | 0.00 | 0.03 | 0.03 | 98 | 1010.0 |
| 20260903073619 | 15 | 232 | 0.0 | 4.8 | 0.00 | 0.03 | 0.03 | 98 | 1010.0 |
| 20260903073018 | 15 | 178 | 1.6 | 4.8 | 0.00 | 0.03 | 0.03 | 97 | 1010.0 |
| 20260903072516 | 15 | 178 | 1.6 | 4.8 | 0.00 | 0.03 | 0.03 | 98 | 1010.0 |
| 20260903072015 | 15 | 178 | 0.0 | 3.2 | 0.00 | 0.03 | 0.03 | 98 | 1010.1 |
| 20260903071515 | 15 | 178 | 0.0 | 3.2 | 0.00 | 0.03 | 0.03 | 98 | 1010.1 |
| 20260903071014 | 15 | 178 | 0.0 | 3.2 | 0.00 | 0.03 | 0.03 | 98 | 1010.2 |
| 20260903070515 | 15 | 178 | 0.0 | 6.4 | 0.00 | 0.03 | 0.03 | 98 | 1010.2 |
| 20260903070013 | 14 | 179 | 1.6 | 6.4 | 0.00 | 0.03 | 0.03 | 98 | 1010.3 |
| 20260903065512 | 14 | 180 | 0.0 | 4.8 | 0.00 | 0.03 | 0.03 | 98 | 1010.3 |
| 20260903065012 | 14 | 180 | 0.0 | 4.8 | 0.00 | 0.03 | 0.03 | 98 | 1010.4 |
| 20260903064509 | 13 | 184 | 0.0 | 3.2 | 0.00 | 0.03 | 0.03 | 98 | 1010.5 |
| 20260903064007 | 13 | 305 | 0.0 | 0.0 | 0.00 | 0.03 | 0.03 | 98 | 1010.5 |
| 20260903063506 | 13 | 305 | 0.0 | 0.0 | 0.00 | 0.03 | 0.03 | 98 | 1010.6 |
| 20260903063005 | 13 | 305 | 0.0 | 0.0 | 0.00 | 0.03 | 0.03 | 98 | 1010.6 |
| 20260903062503 | 12 | 305 | 0.0 | 0.0 | 0.00 | 0.03 | 0.03 | 97 | 1010.7 |
| 20260903062001 | 12 | 305 | 0.0 | 0.0 | 0.00 | 0.03 | 0.03 | 98 | 1010.8 |
| 20260903061600 | 12 | 305 | 0.0 | 0.0 | 0.00 | 0.03 | 0.03 | 97 | 1010.8 |
| 20260903061103 | 12 | 305 | 0.0 | 0.0 | 0.00 | 0.03 | 0.03 | 97 | 1010.8 |
| 20260903060557 | 12 | 305 | 0.0 | 0.0 | 0.00 | 0.03 | 0.03 | 97 | 1010.9 |
| 20260903060056 | 12 | 305 | 0.0 | 0.0 | 0.00 | 0.03 | 0.03 | 97 | 1010.9 |
| 20260903055556 | 12 | 305 | 0.0 | 0.0 | 0.00 | 0.03 | 0.03 | 97 | 1011.0 |
| 20260903055054 | 12 | 305 | 0.0 | 0.0 | 0.00 | 0.03 | 0.03 | 97 | 1011.0 |
| 20260903054553 | 12 | 305 | 0.0 | 0.0 | 0.00 | 0.03 | 0.03 | 97 | 1011.1 |
| 20260903054054 | 11 | 305 | 0.0 | 0.0 | 0.00 | 0.03 | 0.03 | 97 | 1011.2 |
| 20260903053555 | 11 | 305 | 0.0 | 0.0 | 0.00 | 0.03 | 0.03 | 97 | 1011.2 |
| 20260903053055 | 11 | 305 | 0.0 | 0.0 | 0.00 | 0.03 | 0.03 | 97 | 1011.3 |
| 20260903052553 | 11 | 305 | 0.0 | 0.0 | 0.00 | 0.03 | 0.03 | 97 | 1011.4 |
| 20260903052052 | 11 | 305 | 0.0 | 0.0 | 0.00 | 0.03 | 0.03 | 97 | 1011.3 |
| 20260903051550 | 11 | 305 | 0.0 | 0.0 | 0.00 | 0.03 | 0.03 | 97 | 1011.4 |
| 20260903051050 | 11 | 305 | 0.0 | 0.0 | 0.00 | 0.03 | 0.03 | 97 | 1011.4 |
| 20260903050551 | 11 | 305 | 0.0 | 0.0 | 0.00 | 0.03 | 0.03 | 97 | 1011.4 |
| 20260903050046 | 11 | 305 | 0.0 | 0.0 | 0.00 | 0.03 | 0.03 | 97 | 1011.5 |
| 20260903045546 | 11 | 305 | 0.0 | 0.0 | 0.00 | 0.03 | 0.03 | 97 | 1011.5 |
| 20260903045047 | 11 | 305 | 0.0 | 0.0 | 0.00 | 0.03 | 0.03 | 97 | 1011.5 |
| 20260903044543 | 11 | 305 | 0.0 | 0.0 | 0.00 | 0.03 | 0.03 | 97 | 1011.6 |
| 20260903044047 | 11 | 305 | 0.0 | 0.0 | 0.00 | 0.03 | 0.03 | 97 | 1011.7 |
| 20260903043541 | 11 | 305 | 0.0 | 0.0 | 0.00 | 0.03 | 0.03 | 97 | 1011.8 |
| 20260903043053 | 11 | 305 | 0.0 | 0.0 | 0.00 | 0.03 | 0.03 | 97 | 1011.9 |
| 20260903042540 | 11 | 305 | 0.0 | 0.0 | 0.00 | 0.03 | 0.03 | 97 | 1012.0 |
| 20260903042039 | 11 | 305 | 0.0 | 0.0 | 0.00 | 0.03 | 0.03 | 97 | 1012.1 |
| 20260903041538 | 11 | 305 | 0.0 | 0.0 | 0.00 | 0.03 | 0.03 | 97 | 1012.1 |
| 20260903041037 | 11 | 305 | 0.0 | 0.0 | 0.00 | 0.03 | 0.03 | 97 | 1012.2 |
| 20260903040537 | 11 | 305 | 0.0 | 0.0 | 0.00 | 0.03 | 0.03 | 97 | 1012.3 |
| 20260903040037 | 11 | 305 | 0.0 | 0.0 | 0.00 | 0.03 | 0.03 | 97 | 1012.3 |
| 20260903035536 | 11 | 305 | 0.0 | 0.0 | 0.00 | 0.03 | 0.03 | 97 | 1012.4 |
| 20260903035035 | 11 | 305 | 0.0 | 0.0 | 0.00 | 0.03 | 0.03 | 97 | 1012.4 |
| 20260903034535 | 10 | 305 | 0.0 | 0.0 | 0.00 | 0.03 | 0.03 | 97 | 1012.5 |
| 20260903034035 | 10 | 305 | 0.0 | 0.0 | 0.00 | 0.03 | 0.03 | 97 | 1012.5 |
| 20260903033534 | 10 | 305 | 0.0 | 0.0 | 0.00 | 0.03 | 0.03 | 97 | 1012.5 |
| 20260903033033 | 10 | 305 | 0.0 | 0.0 | 0.00 | 0.03 | 0.03 | 97 | 1012.5 |
| 20260903032532 | 10 | 305 | 0.0 | 0.0 | 0.00 | 0.03 | 0.03 | 97 | 1012.6 |
| 20260903032035 | 10 | 305 | 0.0 | 0.0 | 0.00 | 0.03 | 0.03 | 97 | 1012.7 |
| 20260903031538 | 10 | 305 | 0.0 | 0.0 | 0.00 | 0.03 | 0.03 | 97 | 1012.6 |
| 20260903031029 | 10 | 305 | 0.0 | 0.0 | 0.00 | 0.03 | 0.03 | 97 | 1012.7 |
| 20260903030531 | 10 | 305 | 0.0 | 0.0 | 0.00 | 0.03 | 0.03 | 97 | 1012.7 |
| 20260903030030 | 10 | 305 | 0.0 | 0.0 | 0.00 | 0.03 | 0.03 | 96 | 1012.8 |
| 20260903025526 | 10 | 305 | 0.0 | 0.0 | 0.00 | 0.05 | 0.03 | 97 | 1012.8 |
| 20260903025025 | 10 | 305 | 0.0 | 0.0 | 0.00 | 0.05 | 0.03 | 97 | 1013.0 |
| 20260903024525 | 10 | 305 | 0.0 | 0.0 | 0.00 | 0.05 | 0.03 | 96 | 1013.0 |
| 20260903024024 | 9 | 305 | 0.0 | 0.0 | 0.00 | 0.05 | 0.03 | 96 | 1012.9 |
| 20260903023530 | 9 | 305 | 0.0 | 0.0 | 0.00 | 0.05 | 0.03 | 97 | 1013.0 |
| 20260903023022 | 9 | 305 | 0.0 | 0.0 | 0.00 | 0.05 | 0.03 | 96 | 1013.1 |
| 20260903022522 | 9 | 305 | 0.0 | 0.0 | 0.00 | 0.05 | 0.03 | 96 | 1013.1 |
| 20260903022021 | 8 | 305 | 0.0 | 0.0 | 0.00 | 0.05 | 0.03 | 96 | 1013.1 |
| 20260903021521 | 8 | 305 | 0.0 | 0.0 | 0.00 | 0.05 | 0.03 | 96 | 1013.1 |
| 20260903021020 | 8 | 305 | 0.0 | 0.0 | 0.00 | 0.05 | 0.03 | 96 | 1013.1 |
| 20260903020520 | 8 | 305 | 0.0 | 0.0 | 0.00 | 0.05 | 0.03 | 96 | 1013.1 |
| 20260903020034 | 8 | 305 | 0.0 | 0.0 | 0.00 | 0.05 | 0.03 | 96 | 1013.2 |
| 20260903015519 | 8 | 305 | 0.0 | 0.0 | 0.00 | 0.05 | 0.03 | 96 | 1013.3 |
| 20260903015017 | 8 | 305 | 0.0 | 0.0 | 0.00 | 0.05 | 0.03 | 96 | 1013.4 |
| 20260903014516 | 8 | 305 | 0.0 | 0.0 | 0.00 | 0.05 | 0.03 | 95 | 1013.5 |
| 20260903014017 | 8 | 305 | 0.0 | 0.0 | 0.03 | 0.05 | 0.03 | 95 | 1013.6 |
| 20260903013516 | 8 | 305 | 0.0 | 0.0 | 0.03 | 0.05 | 0.03 | 95 | 1013.6 |
| 20260903013018 | 8 | 305 | 0.0 | 0.0 | 0.03 | 0.05 | 0.03 | 96 | 1013.7 |
| 20260903012515 | 8 | 305 | 0.0 | 0.0 | 0.03 | 0.05 | 0.03 | 96 | 1013.7 |
| 20260903012014 | 8 | 305 | 0.0 | 0.0 | 0.03 | 0.05 | 0.03 | 96 | 1013.7 |
| 20260903011514 | 8 | 305 | 0.0 | 0.0 | 0.03 | 0.05 | 0.03 | 95 | 1013.7 |
| 20260903011015 | 8 | 305 | 0.0 | 0.0 | 0.03 | 0.05 | 0.03 | 95 | 1013.8 |
| 20260903010512 | 8 | 305 | 0.0 | 0.0 | 0.03 | 0.05 | 0.03 | 95 | 1013.8 |
| 20260903010013 | 8 | 305 | 0.0 | 0.0 | 0.03 | 0.05 | 0.03 | 95 | 1013.9 |
| 20260903005511 | 8 | 305 | 0.0 | 0.0 | 0.03 | 0.05 | 0.03 | 95 | 1013.8 |
| 20260903005012 | 8 | 305 | 0.0 | 0.0 | 0.03 | 0.05 | 0.03 | 95 | 1013.9 |
| 20260903004511 | 8 | 305 | 0.0 | 0.0 | 0.03 | 0.05 | 0.03 | 95 | 1013.9 |
| 20260903004011 | 8 | 305 | 0.0 | 0.0 | 0.00 | 0.03 | 0.00 | 95 | 1013.9 |
| 20260903003511 | 8 | 305 | 0.0 | 0.0 | 0.00 | 0.03 | 0.00 | 95 | 1013.9 |
| 20260903003010 | 8 | 305 | 0.0 | 0.0 | 0.00 | 0.03 | 0.00 | 95 | 1013.9 |
| 20260903002514 | 8 | 305 | 0.0 | 0.0 | 0.00 | 0.03 | 0.00 | 95 | 1014.0 |
| 20260903002012 | 8 | 305 | 0.0 | 0.0 | 0.00 | 0.03 | 0.00 | 95 | 1014.0 |
| 20260903001509 | 8 | 305 | 0.0 | 0.0 | 0.00 | 0.03 | 0.00 | 95 | 1013.9 |
| 20260903001009 | 8 | 305 | 0.0 | 0.0 | 0.00 | 0.03 | 0.00 | 95 | 1013.9 |
| 20260903000508 | 8 | 305 | 0.0 | 0.0 | 0.00 | 0.03 | 0.00 | 95 | 1013.9 |
| 20260903000007 | 8 | 305 | 0.0 | 0.0 | 0.00 | 0.03 | 0.00 | 95 | 1013.9 |
| 20260902235511 | 8 | 305 | 0.0 | 0.0 | 0.00 | 0.03 | 0.00 | 95 | 1014.0 |
| 20260902235007 | 8 | 305 | 0.0 | 0.0 | 0.00 | 0.03 | 0.00 | 95 | 1014.0 |
| 20260902234505 | 8 | 305 | 0.0 | 0.0 | 0.00 | 0.03 | 0.00 | 94 | 1014.0 |
| 20260902234006 | 8 | 305 | 0.0 | 0.0 | 0.00 | 0.03 | 0.00 | 94 | 1014.1 |
| 20260902233504 | 8 | 305 | 0.0 | 0.0 | 0.00 | 0.03 | 0.00 | 94 | 1014.1 |
| 20260902233009 | 8 | 305 | 0.0 | 0.0 | 0.00 | 0.03 | 0.00 | 94 | 1014.1 |
| 20260902232503 | 8 | 305 | 0.0 | 0.0 | 0.00 | 0.03 | 0.00 | 94 | 1014.2 |
| 20260902232003 | 9 | 305 | 0.0 | 0.0 | 0.00 | 0.03 | 0.00 | 94 | 1014.2 |
| 20260902231503 | 9 | 305 | 0.0 | 0.0 | 0.00 | 0.03 | 0.00 | 94 | 1014.2 |
| 20260902231003 | 9 | 305 | 0.0 | 0.0 | 0.00 | 0.03 | 0.00 | 94 | 1014.3 |
| 20260902230500 | 9 | 305 | 0.0 | 0.0 | 0.00 | 0.03 | 0.00 | 94 | 1014.3 |
| 20260902230001 | 9 | 305 | 0.0 | 0.0 | 0.00 | 0.03 | 0.00 | 94 | 1014.3 |
| 20260902225601 | 9 | 305 | 0.0 | 0.0 | 0.00 | 0.05 | 0.00 | 94 | 1014.3 |
| 20260902225101 | 9 | 305 | 0.0 | 0.0 | 0.00 | 0.05 | 0.00 | 94 | 1014.3 |
| 20260902224600 | 9 | 305 | 0.0 | 0.0 | 0.00 | 0.05 | 0.00 | 94 | 1014.3 |
| 20260902224059 | 9 | 305 | 0.0 | 0.0 | 0.00 | 0.05 | 0.00 | 94 | 1014.2 |
| 20260902223559 | 9 | 305 | 0.0 | 0.0 | 0.00 | 0.05 | 0.00 | 94 | 1014.2 |
| 20260902223117 | 9 | 305 | 0.0 | 0.0 | 0.00 | 0.05 | 0.00 | 94 | 1014.2 |
| 20260902222559 | 9 | 305 | 0.0 | 0.0 | 0.00 | 0.05 | 0.00 | 94 | 1014.2 |
| 20260902222059 | 9 | 305 | 0.0 | 0.0 | 0.00 | 0.05 | 0.00 | 94 | 1014.2 |
| 20260902221557 | 9 | 305 | 0.0 | 0.0 | 0.00 | 0.05 | 0.00 | 94 | 1014.2 |
| 20260902221059 | 9 | 305 | 0.0 | 0.0 | 0.00 | 0.05 | 0.00 | 93 | 1014.2 |
| 20260902220556 | 9 | 305 | 0.0 | 0.0 | 0.00 | 0.05 | 0.00 | 93 | 1014.3 |
| 20260902220101 | 9 | 305 | 0.0 | 0.0 | 0.00 | 0.05 | 0.00 | 93 | 1014.2 |
| 20260902215555 | 9 | 305 | 0.0 | 0.0 | 0.00 | 0.05 | 0.05 | 93 | 1014.3 |
| 20260902215057 | 9 | 305 | 0.0 | 0.0 | 0.00 | 0.05 | 0.05 | 93 | 1014.1 |
| 20260902214556 | 9 | 305 | 0.0 | 0.0 | 0.00 | 0.05 | 0.05 | 93 | 1014.2 |
| 20260902214055 | 9 | 305 | 0.0 | 0.0 | 0.00 | 0.05 | 0.05 | 93 | 1014.2 |
| 20260902213554 | 9 | 305 | 0.0 | 1.6 | 0.00 | 0.05 | 0.05 | 93 | 1014.2 |
| 20260902213054 | 9 | 305 | 0.0 | 1.6 | 0.00 | 0.05 | 0.05 | 92 | 1014.2 |
| 20260902212553 | 9 | 305 | 0.0 | 1.6 | 0.00 | 0.05 | 0.05 | 92 | 1014.2 |
| 20260902212052 | 10 | 305 | 0.0 | 1.6 | 0.00 | 0.05 | 0.05 | 92 | 1014.2 |
| 20260902211555 | 10 | 305 | 0.0 | 1.6 | 0.00 | 0.05 | 0.05 | 92 | 1014.2 |
| 20260902211051 | 10 | 305 | 0.0 | 1.6 | 0.00 | 0.05 | 0.05 | 92 | 1014.1 |
| 20260902210550 | 10 | 305 | 0.0 | 0.0 | 0.00 | 0.05 | 0.05 | 91 | 1014.1 |
| 20260902210050 | 10 | 305 | 0.0 | 0.0 | 0.00 | 0.05 | 0.05 | 91 | 1014.1 |
| 20260902205549 | 10 | 305 | 0.0 | 0.0 | 0.00 | 0.05 | 0.05 | 91 | 1014.1 |
| 20260902205048 | 10 | 305 | 0.0 | 1.6 | 0.00 | 0.05 | 0.05 | 91 | 1014.1 |
| 20260902204621 | 10 | 305 | 0.0 | 1.6 | 0.00 | 0.05 | 0.05 | 90 | 1014.0 |
| 20260902204047 | 10 | 305 | 0.0 | 1.6 | 0.00 | 0.05 | 0.05 | 90 | 1014.0 |
| 20260902203546 | 10 | 305 | 0.0 | 0.0 | 0.00 | 0.05 | 0.05 | 90 | 1014.1 |
| 20260902203050 | 10 | 305 | 0.0 | 1.6 | 0.00 | 0.05 | 0.05 | 90 | 1014.1 |
| 20260902202547 | 11 | 305 | 0.0 | 1.6 | 0.00 | 0.05 | 0.05 | 89 | 1014.1 |
| 20260902202044 | 11 | 305 | 0.0 | 1.6 | 0.00 | 0.05 | 0.05 | 89 | 1014.1 |
| 20260902201544 | 11 | 305 | 0.0 | 0.0 | 0.00 | 0.05 | 0.05 | 89 | 1014.1 |
| 20260902201047 | 11 | 305 | 0.0 | 1.6 | 0.00 | 0.05 | 0.05 | 89 | 1014.0 |
| 20260902200543 | 11 | 305 | 0.0 | 1.6 | 0.00 | 0.05 | 0.05 | 88 | 1014.0 |
| 20260902200044 | 11 | 305 | 0.0 | 1.6 | 0.00 | 0.05 | 0.05 | 88 | 1014.0 |
| 20260902195543 | 12 | 305 | 0.0 | 0.0 | 0.00 | 0.05 | 0.05 | 87 | 1014.0 |
| 20260902195044 | 12 | 305 | 0.0 | 0.0 | 0.00 | 0.05 | 0.05 | 87 | 1014.1 |
| 20260902194543 | 12 | 305 | 0.0 | 0.0 | 0.00 | 0.05 | 0.05 | 86 | 1014.1 |
| 20260902194043 | 12 | 305 | 0.0 | 0.0 | 0.00 | 0.05 | 0.05 | 86 | 1014.1 |
| 20260902193546 | 12 | 305 | 0.0 | 0.0 | 0.00 | 0.05 | 0.05 | 86 | 1014.2 |
| 20260902193042 | 12 | 305 | 0.0 | 1.6 | 0.00 | 0.05 | 0.05 | 86 | 1014.2 |
| 20260902192542 | 12 | 305 | 0.0 | 1.6 | 0.00 | 0.05 | 0.05 | 85 | 1014.1 |
| 20260902192041 | 13 | 305 | 0.0 | 3.2 | 0.00 | 0.05 | 0.05 | 84 | 1014.1 |
| 20260902191542 | 13 | 305 | 0.0 | 3.2 | 0.00 | 0.05 | 0.05 | 84 | 1014.1 |
| 20260902191041 | 13 | 305 | 0.0 | 0.0 | 0.00 | 0.05 | 0.05 | 84 | 1014.1 |
| 20260902190541 | 13 | 305 | 0.0 | 0.0 | 0.00 | 0.05 | 0.05 | 84 | 1014.0 |
| 20260902190041 | 13 | 305 | 0.0 | 0.0 | 0.00 | 0.05 | 0.05 | 83 | 1014.0 |
| 20260902185543 | 13 | 305 | 0.0 | 0.0 | 0.00 | 0.05 | 0.05 | 82 | 1014.0 |
| 20260902185044 | 14 | 305 | 0.0 | 0.0 | 0.00 | 0.05 | 0.05 | 82 | 1013.9 |
| 20260902184541 | 14 | 305 | 0.0 | 3.2 | 0.00 | 0.05 | 0.05 | 81 | 1013.9 |
| 20260902184041 | 15 | 305 | 0.0 | 3.2 | 0.00 | 0.05 | 0.05 | 81 | 1013.9 |
| 20260902183541 | 15 | 257 | 0.0 | 1.6 | 0.00 | 0.05 | 0.05 | 81 | 1013.9 |
| 20260902183054 | 15 | 257 | 0.0 | 1.6 | 0.00 | 0.05 | 0.05 | 81 | 1013.8 |
| 20260902182540 | 15 | 257 | 0.0 | 4.8 | 0.00 | 0.05 | 0.05 | 81 | 1013.7 |
| 20260902182043 | 15 | 259 | 0.0 | 4.8 | 0.00 | 0.05 | 0.05 | 80 | 1013.7 |
| 20260902181541 | 16 | 286 | 0.0 | 1.6 | 0.00 | 0.05 | 0.05 | 79 | 1013.7 |
| 20260902181038 | 16 | 286 | 0.0 | 4.8 | 0.00 | 0.05 | 0.05 | 78 | 1013.6 |
| 20260902180539 | 17 | 286 | 0.0 | 4.8 | 0.00 | 0.05 | 0.05 | 77 | 1013.6 |
| 20260902180045 | 17 | 331 | 0.0 | 1.6 | 0.00 | 0.05 | 0.05 | 77 | 1013.6 |
| 20260902175539 | 17 | 331 | 0.0 | 1.6 | 0.00 | 0.05 | 0.05 | 76 | 1013.5 |
| 20260902175044 | 18 | 331 | 0.0 | 1.6 | 0.00 | 0.05 | 0.05 | 75 | 1013.4 |
| 20260902174538 | 18 | 331 | 0.0 | 1.6 | 0.00 | 0.05 | 0.05 | 75 | 1013.3 |
| 20260902174040 | 18 | 331 | 0.0 | 3.2 | 0.00 | 0.05 | 0.05 | 76 | 1013.2 |
| 20260902173539 | 18 | 18 | 1.6 | 4.8 | 0.00 | 0.05 | 0.05 | 76 | 1013.2 |
| 20260902173053 | 17 | 245 | 0.0 | 4.8 | 0.00 | 0.05 | 0.05 | 78 | 1013.3 |
| 20260902172538 | 17 | 306 | 0.0 | 4.8 | 0.00 | 0.05 | 0.05 | 78 | 1013.3 |
| 20260902172041 | 17 | 282 | 0.0 | 6.4 | 0.00 | 0.05 | 0.05 | 77 | 1013.4 |
| 20260902171538 | 17 | 267 | 1.6 | 11.3 | 0.00 | 0.05 | 0.05 | 76 | 1013.4 |
| 20260902171039 | 18 | 205 | 1.6 | 4.8 | 0.00 | 0.05 | 0.05 | 77 | 1013.4 |
| 20260902170537 | 18 | 298 | 0.0 | 8.0 | 0.00 | 0.05 | 0.05 | 76 | 1013.3 |
| 20260902170041 | 18 | 245 | 1.6 | 8.0 | 0.00 | 0.05 | 0.05 | 75 | 1013.3 |
| 20260902165536 | 18 | 239 | 1.6 | 6.4 | 0.00 | 0.05 | 0.05 | 75 | 1013.2 |
| 20260902165037 | 18 | 55 | 1.6 | 11.3 | 0.00 | 0.05 | 0.05 | 75 | 1013.3 |
| 20260902164541 | 18 | 33 | 3.2 | 11.3 | 0.00 | 0.05 | 0.05 | 75 | 1013.2 |
| 20260902164036 | 18 | 202 | 1.6 | 9.7 | 0.00 | 0.05 | 0.05 | 76 | 1013.2 |
| 20260902163536 | 18 | 284 | 1.6 | 11.3 | 0.00 | 0.05 | 0.05 | 77 | 1013.1 |
| 20260902163042 | 18 | 290 | 1.6 | 9.7 | 0.00 | 0.05 | 0.05 | 79 | 1013.1 |
| 20260902162536 | 18 | 274 | 1.6 | 9.7 | 0.00 | 0.05 | 0.05 | 80 | 1013.2 |
| 20260902162036 | 18 | 262 | 3.2 | 12.9 | 0.00 | 0.05 | 0.05 | 79 | 1013.2 |
| 20260902161535 | 18 | 276 | 3.2 | 12.9 | 0.00 | 0.05 | 0.05 | 80 | 1013.1 |
| 20260902161035 | 18 | 5 | 3.2 | 12.9 | 0.00 | 0.05 | 0.05 | 80 | 1013.2 |
| 20260902160535 | 18 | 211 | 3.2 | 16.1 | 0.00 | 0.05 | 0.05 | 81 | 1013.2 |
| 20260902160036 | 18 | 186 | 3.2 | 9.7 | 0.00 | 0.05 | 0.05 | 81 | 1013.2 |
| 20260902155535 | 17 | 191 | 3.2 | 8.0 | 0.00 | 0.05 | 0.05 | 82 | 1013.2 |
| 20260902155035 | 17 | 69 | 3.2 | 8.0 | 0.00 | 0.05 | 0.05 | 83 | 1013.2 |
| 20260902154538 | 17 | 302 | 0.0 | 9.7 | 0.00 | 0.05 | 0.05 | 83 | 1013.2 |
| 20260902154034 | 17 | 304 | 3.2 | 9.7 | 0.00 | 0.05 | 0.05 | 82 | 1013.3 |
| 20260902153534 | 17 | 197 | 1.6 | 9.7 | 0.00 | 0.05 | 0.05 | 82 | 1013.3 |
| 20260902153034 | 17 | 333 | 3.2 | 9.7 | 0.00 | 0.05 | 0.05 | 81 | 1013.3 |
| 20260902152536 | 18 | 89 | 1.6 | 6.4 | 0.00 | 0.05 | 0.05 | 80 | 1013.3 |
| 20260902152033 | 18 | 286 | 1.6 | 8.0 | 0.00 | 0.05 | 0.05 | 80 | 1013.3 |
| 20260902151536 | 18 | 315 | 1.6 | 8.0 | 0.00 | 0.05 | 0.05 | 78 | 1013.3 |
| 20260902151032 | 18 | 98 | 0.0 | 9.7 | 0.00 | 0.05 | 0.05 | 77 | 1013.3 |
| 20260902150532 | 19 | 18 | 3.2 | 9.7 | 0.00 | 0.05 | 0.05 | 74 | 1013.3 |
| 20260902150033 | 19 | 67 | 1.6 | 12.9 | 0.00 | 0.05 | 0.05 | 73 | 1013.2 |
| 20260902145533 | 20 | 221 | 4.8 | 12.9 | 0.00 | 0.05 | 0.05 | 72 | 1013.2 |
| 20260902145034 | 20 | 180 | 4.8 | 14.5 | 0.00 | 0.05 | 0.05 | 73 | 1013.1 |
| 20260902144532 | 19 | 186 | 4.8 | 12.9 | 0.00 | 0.05 | 0.05 | 74 | 1013.3 |
| 20260902144031 | 19 | 173 | 4.8 | 12.9 | 0.00 | 0.05 | 0.05 | 74 | 1013.3 |
| 20260902143633 | 19 | 244 | 3.2 | 12.9 | 0.00 | 0.05 | 0.05 | 74 | 1013.2 |
| 20260902143031 | 19 | 182 | 1.6 | 12.9 | 0.00 | 0.05 | 0.05 | 75 | 1013.2 |
| 20260902142533 | 19 | 154 | 3.2 | 16.1 | 0.00 | 0.05 | 0.05 | 74 | 1013.2 |
| 20260902142031 | 20 | 182 | 3.2 | 16.1 | 0.00 | 0.05 | 0.05 | 75 | 1013.2 |
| 20260902141530 | 19 | 261 | 6.4 | 16.1 | 0.00 | 0.05 | 0.05 | 75 | 1013.1 |
| 20260902141030 | 20 | 292 | 4.8 | 16.1 | 0.00 | 0.05 | 0.05 | 75 | 1013.1 |
| 20260902140530 | 20 | 200 | 4.8 | 16.1 | 0.00 | 0.05 | 0.05 | 74 | 1013.1 |
| 20260902140029 | 20 | 220 | 6.4 | 16.1 | 0.00 | 0.05 | 0.05 | 75 | 1013.1 |
| 20260902135534 | 20 | 232 | 6.4 | 19.3 | 0.00 | 0.08 | 0.05 | 76 | 1013.1 |
| 20260902135028 | 20 | 305 | 4.8 | 14.5 | 0.00 | 0.08 | 0.05 | 77 | 1013.1 |
| 20260902134527 | 19 | 331 | 4.8 | 16.1 | 0.00 | 0.08 | 0.05 | 77 | 1013.2 |
| 20260902134025 | 19 | 209 | 3.2 | 11.3 | 0.00 | 0.08 | 0.05 | 79 | 1013.1 |
| 20260902133525 | 19 | 159 | 4.8 | 22.5 | 0.00 | 0.08 | 0.05 | 79 | 1013.1 |
| 20260902133028 | 19 | 287 | 4.8 | 22.5 | 0.00 | 0.08 | 0.05 | 80 | 1013.1 |
| 20260902132527 | 19 | 179 | 3.2 | 14.5 | 0.00 | 0.08 | 0.05 | 82 | 1013.0 |
| 20260902132021 | 19 | 225 | 3.2 | 14.5 | 0.00 | 0.08 | 0.05 | 83 | 1013.1 |
| 20260902131520 | 18 | 172 | 4.8 | 16.1 | 0.00 | 0.08 | 0.05 | 83 | 1013.1 |
| 20260902131020 | 18 | 213 | 6.4 | 16.1 | 0.00 | 0.08 | 0.05 | 84 | 1013.1 |
| 20260902130520 | 18 | 216 | 4.8 | 17.7 | 0.00 | 0.08 | 0.05 | 83 | 1013.1 |
| 20260902130019 | 18 | 201 | 4.8 | 17.7 | 0.00 | 0.08 | 0.05 | 85 | 1013.2 |
| 20260902125520 | 18 | 191 | 4.8 | 17.7 | 0.00 | 0.08 | 0.05 | 87 | 1013.2 |
| 20260902125019 | 17 | 120 | 3.2 | 12.9 | 0.00 | 0.08 | 0.05 | 88 | 1013.3 |
| 20260902124519 | 17 | 268 | 4.8 | 14.5 | 0.00 | 0.08 | 0.05 | 88 | 1013.3 |
| 20260902124023 | 17 | 209 | 4.8 | 14.5 | 0.00 | 0.08 | 0.05 | 88 | 1013.4 |
| 20260902123518 | 17 | 163 | 1.6 | 11.3 | 0.00 | 0.08 | 0.05 | 88 | 1013.4 |
| 20260902123018 | 17 | 273 | 3.2 | 12.9 | 0.00 | 0.08 | 0.05 | 89 | 1013.4 |
| 20260902122518 | 17 | 286 | 3.2 | 17.7 | 0.00 | 0.08 | 0.05 | 89 | 1013.4 |
| 20260902122017 | 17 | 306 | 8.0 | 17.7 | 0.00 | 0.08 | 0.05 | 89 | 1013.4 |
| 20260902121516 | 17 | 213 | 3.2 | 12.9 | 0.00 | 0.08 | 0.05 | 90 | 1013.4 |
| 20260902121017 | 17 | 213 | 6.4 | 16.1 | 0.00 | 0.08 | 0.05 | 89 | 1013.5 |
| 20260902120518 | 17 | 118 | 1.6 | 16.1 | 0.00 | 0.08 | 0.05 | 90 | 1013.5 |
| 20260902120018 | 17 | 249 | 4.8 | 16.1 | 0.00 | 0.08 | 0.05 | 90 | 1013.5 |
| 20260902115516 | 17 | 195 | 4.8 | 14.5 | 0.00 | 0.10 | 0.05 | 90 | 1013.4 |
| 20260902115016 | 17 | 296 | 3.2 | 11.3 | 0.00 | 0.10 | 0.05 | 89 | 1013.4 |
| 20260902114516 | 17 | 306 | 4.8 | 14.5 | 0.00 | 0.10 | 0.05 | 89 | 1013.3 |
| 20260902114016 | 17 | 113 | 4.8 | 14.5 | 0.00 | 0.10 | 0.05 | 89 | 1013.3 |
| 20260902113515 | 17 | 198 | 1.6 | 8.0 | 0.00 | 0.10 | 0.05 | 89 | 1013.4 |
| 20260902113015 | 17 | 177 | 3.2 | 11.3 | 0.00 | 0.10 | 0.05 | 88 | 1013.5 |
| 20260902112515 | 17 | 257 | 3.2 | 11.3 | 0.00 | 0.10 | 0.05 | 87 | 1013.6 |
| 20260902112019 | 18 | 301 | 4.8 | 12.9 | 0.00 | 0.10 | 0.05 | 86 | 1013.6 |
| 20260902111519 | 18 | 161 | 3.2 | 14.5 | 0.00 | 0.10 | 0.05 | 85 | 1013.6 |
| 20260902111016 | 18 | 242 | 6.4 | 22.5 | 0.00 | 0.10 | 0.05 | 83 | 1013.6 |
| 20260902110516 | 18 | 273 | 6.4 | 22.5 | 0.00 | 0.10 | 0.05 | 83 | 1013.6 |
| 20260902110033 | 18 | 203 | 4.8 | 16.1 | 0.00 | 0.10 | 0.05 | 84 | 1013.6 |